Temperature
19 20 20 20 21 20 19 17 17 19 19 20 19 18 20 21 21 21 20 20 20 19 19 18 18 17 17 17 16 16 15 15 15 14 14 14 13 13 13 13 12 12 12 11
21 21 21 21 20 20 19 19 18 19 19 19 20 21 21 21 21 21 21 20 20 20 19 19 18 18 17 17 17 16 16 16 15 15 15 14 14 14 13 13 13 12 12 12
18 19 21 20 20 20 19 19 19 19 19 20 19 19 21 21 21 21 21 21 20 20 19 19 18 18 18 17 17 17 16 16 16 15 15 15 14 14 14 13 13 13 12 12
17 19 19 20 20 20 20 20 19 20 19 19 20 22 22 22 22 21 21 21 20 20 19 19 19 18 18 18 17 17 17 16 16 16 15 15 15 15 14 14 14 13 13 12
16 18 18 20 21 21 20 20 20 20 20 21 22 21 21 22 22 21 21 21 20 20 19 19 19 18 18 18 17 17 17 16 16 16 16 15 15 15 14 14 14 14 13 13
16 18 18 20 21 22 21 21 21 20 19 20 19 17 18 21 21 21 21 20 20 19 19 19 19 18 18 18 17 17 17 17 16 16 16 15 15 15 15 14 14 14 14 13
16 17 17 19 21 22 21 20 22 22 22 21 20 20 22 21 21 21 20 20 19 19 19 19 18 18 18 18 17 17 17 16 16 16 16 15 15 15 15 14 14 14 14 14
14 16 18 20 22 21 21 23 23 23 23 23 23 23 22 21 21 20 20 19 19 19 18 18 18 18 18 17 17 17 17 16 16 16 16 15 15 15 15 15 14 14 14 14
16 18 20 22 23 25 25 24 24 24 24 24 23 22 21 21 20 20 20 19 19 19 18 18 18 18 17 17 17 17 16 16 16 16 15 15 15 15 15 15 14 14 14 14
16 17 19 22 24 25 25 25 25 25 24 24 23 22 21 21 20 20 19 19 19 18 18 18 17 17 17 17 16 16 16 16 16 15 15 15 15 14 14 14 14 14 14 14
17 18 20 22 23 24 25 25 24 24 24 23 23 22 21 21 20 20 19 19 18 18 18 17 17 17 17 16 16 16 16 15 15 15 14 14 14 14 13 13 13 13 13 13
17 19 18 22 24 24 24 24 24 23 23 23 23 22 21 21 20 19 19 18 18 17 17 17 16 16 16 16 15 15 15 14 14 13 13 13 13 13 13 13 13 13 13 13
21 22 22 23 24 24 24 24 24 23 23 22 22 22 21 20 20 19 18 18 17 17 17 16 16 16 15 15 14 14 14 13 13 12 12 12 12 12 12 12 12 12 12 13
21 22 22 22 23 23 23 23 23 23 22 22 22 21 20 20 19 18 18 17 17 16 16 15 15 15 14 14 13 13 12 12 11 11 11 11 11 11 11 11 11 11 12 12
21 21 21 22 23 23 23 22 22 22 21 21 20 20 20 19 18 17 17 16 16 15 15 14 14 14 13 13 12 12 11 10 10 10 10 9 9 9 10 10 10 10 11 11
20 20 21 21 22 22 22 22 21 21 21 20 19 19 19 18 17 16 15 15 15 14 14 13 13 12 12 11 11 10 10 9 9 9 9 8 8 8 8 8 9 9 9 9
18 18 19 20 20 21 21 21 21 21 20 19 19 18 17 16 15 14 14 13 13 13 12 12 12 11 10 10 10 9 9 8 8 8 8 7 7 7 7 7 7 7 7 7
17 18 18 19 20 20 20 21 21 20 20 19 18 17 16 15 14 14 13 12 11 11 11 11 10 10 9 9 9 8 8 7 7 7 7 7 7 7 7 6 6 6 6 6
16 17 18 19 19 20 20 20 20 19 19 18 17 16 15 14 14 13 12 11 11 11 10 9 9 9 8 8 8 7 7 7 7 6 6 6 6 6 6 6 6 5 6 6
15 16 17 18 18 19 19 19 19 18 18 17 16 15 14 13 12 12 11 10 10 10 9 9 8 8 8 7 7 7 7 6 6 6 6 6 5 5 5 5 5 5 5 5
13 14 15 16 17 17 18 18 17 17 16 16 15 14 13 12 11 11 10 9 9 8 8 8 8 7 7 7 7 6 6 6 6 6 5 5 5 5 5 4 4 4 4 4
12 12 13 14 15 15 16 16 16 16 15 15 14 13 12 11 10 10 10 9 9 8 8 7 7 7 7 6 6 6 6 6 5 5 5 5 5 4 4 4 4 4 4 3
10 11 12 13 13 14 14 14 14 14 14 13 13 12 12 11 10 9 8 8 8 7 7 7 7 6 6 6 6 6 5 5 5 5 5 4 4 4 4 4 3 3 3 3
9 10 11 11 12 12 12 12 12 12 12 12 11 11 11 10 9 9 8 8 7 7 6 6 6 6 6 5 5 5 5 5 5 4 4 4 4 4 3 3 3 3 3 2
8 9 10 10 11 11 11 11 10 10 10 10 10 9 9 9 9 8 7 7 7 6 6 6 6 5 5 5 5 5 5 4 4 4 4 4 3 3 3 3 3 2 2 2
8 8 9 9 10 10 10 9 9 9 9 9 8 8 8 8 7 7 7 6 6 6 6 5 5 5 5 5 5 4 4 4 4 4 3 3 3 3 3 2 2 2 2 1
8 8 8 8 9 9 9 9 8 8 8 8 7 7 7 7 7 7 6 6 6 5 5 5 5 5 5 5 4 4 4 4 4 3 3 3 3 2 2 2 2 1 1 1
Wind_Speed
8 8 6 8 9 9 9 10 9 8 7 8 10 11 10 8 8 8 8 8 10 10 9 8 7 7 7 7 7 6 6 6 6 6 5 4 3 3 3 3 4 4 4 5
4 5 6 7 10 11 11 9 9 7 8 8 7 6 7 8 9 9 9 10 10 10 9 9 9 8 8 7 7 7 7 7 7 6 5 5 5 4 3 4 4 4 4 5
4 6 2 7 11 13 9 9 10 12 11 5 6 9 10 10 9 9 9 9 9 10 10 10 10 9 9 9 7 7 7 7 7 7 6 6 5 4 5 5 4 5 5 5
2 1 6 10 8 10 12 11 11 9 9 11 11 10 9 9 10 9 9 8 8 8 8 8 8 8 8 7 7 7 7 7 7 7 7 6 5 6 6 5 5 5 6 6
3 3 8 10 8 8 10 10 10 12 10 10 7 5 1 6 8 9 8 8 7 7 6 6 7 7 7 7 6 6 7 7 8 8 7 7 7 7 6 5 6 6 6 6
4 3 6 10 9 5 7 5 7 12 12 10 10 6 6 6 7 7 7 6 6 5 5 5 5 7 7 6 5 6 7 7 7 7 7 8 8 8 6 5 7 6 7 7
6 5 8 10 6 5 6 9 6 11 12 13 11 9 7 8 8 7 7 6 7 7 5 4 5 7 6 4 3 5 5 4 4 5 7 8 7 6 6 6 6 6 7 7
6 5 9 8 5 8 9 4 4 8 10 11 9 8 9 10 9 8 7 7 7 7 5 3 5 7 5 2 3 2 1 1 2 3 4 4 5 6 6 6 6 7 6 7
10 10 9 7 10 9 6 6 6 8 8 11 11 10 9 9 9 8 8 7 6 8 6 4 4 5 4 1 1 0 1 1 3 3 3 3 4 5 5 4 5 6 5 6
5 9 8 8 7 6 8 8 8 9 11 12 12 11 10 10 8 7 6 7 6 8 8 5 5 5 4 2 2 3 3 3 3 4 4 4 3 3 4 4 4 5 5 6
5 8 6 6 7 8 7 7 8 9 10 13 14 11 11 10 9 8 7 6 7 8 8 6 6 6 5 5 4 5 4 4 4 4 4 5 4 4 4 4 4 4 5 5
7 8 6 9 10 8 8 10 11 11 10 10 12 13 11 11 9 9 9 8 9 9 9 7 6 6 6 5 5 5 5 4 4 4 4 4 4 5 6 5 7 5 5 4
10 9 9 10 9 9 11 12 11 11 12 11 10 11 12 9 9 9 10 10 10 10 9 8 7 7 6 5 6 6 5 4 4 4 4 5 4 4 6 7 9 10 11 11
10 8 8 8 9 10 11 11 10 9 9 11 10 11 12 10 10 12 11 10 11 11 9 8 8 6 5 5 6 6 5 6 5 4 4 4 5 4 4 5 6 7 9 13
15 12 11 10 8 8 7 8 10 10 10 9 10 13 14 14 13 12 11 11 11 11 9 8 8 5 4 6 7 6 5 4 4 4 4 5 5 5 5 6 5 6 7 10
12 9 6 7 8 9 9 10 12 12 12 11 11 12 13 13 13 12 11 12 12 10 8 8 7 4 5 6 7 6 5 9 7 5 5 6 6 6 6 6 7 7 8 8
6 6 5 6 7 9 11 13 15 14 13 13 14 14 14 14 13 12 10 9 10 9 8 8 6 5 5 6 6 5 4 6 9 7 5 5 5 6 6 6 6 7 7 9
7 8 8 9 9 10 11 10 11 13 14 13 16 16 17 17 15 14 12 11 10 8 6 6 6 6 6 5 5 4 4 4 4 4 4 5 5 5 5 5 6 6 5 7
8 6 6 7 8 9 10 11 12 13 14 16 18 17 15 14 15 14 13 12 11 9 6 6 11 7 5 5 6 4 4 4 4 3 3 5 5 4 4 4 4 4 4 5
10 8 6 5 4 4 6 8 11 12 14 16 17 16 15 14 15 15 13 9 7 7 7 8 8 6 4 4 6 4 3 3 3 2 3 3 3 3 3 3 3 3 4 4
12 9 6 4 2 1 3 7 12 13 14 16 17 17 16 14 14 14 12 8 6 7 8 10 6 4 3 3 5 3 3 2 2 1 1 1 2 2 3 3 3 3 3 3
12 9 7 4 2 2 3 5 8 12 13 13 14 15 15 14 13 11 9 8 9 11 7 6 5 5 5 4 3 2 2 1 1 0 0 0 1 1 2 3 3 3 3 3
10 8 6 4 3 3 5 6 8 10 12 13 14 15 14 12 11 11 8 6 7 11 8 5 7 7 5 3 2 1 1 1 0 1 1 1 1 1 2 3 3 3 3 4
10 8 5 3 3 5 5 5 6 7 9 9 10 12 13 10 6 6 7 13 14 11 6 7 9 7 4 3 2 2 1 1 1 1 1 1 1 2 2 3 3 4 4 5
8 7 4 0 3 3 4 6 8 8 8 7 8 9 8 8 8 7 8 10 13 11 5 7 8 6 4 3 3 3 2 2 2 2 1 1 2 2 3 3 4 4 4 5
7 6 4 3 3 4 4 5 5 5 6 6 5 6 6 6 8 8 7 8 10 9 6 4 3 3 3 3 3 3 2 2 1 0 1 1 2 2 3 4 5 4 4 5
6 4 2 1 2 3 5 6 7 6 7 7 6 5 7 7 7 8 8 7 6 6 5 4 4 3 3 3 3 2 2 2 1 1 1 1 2 2 3 4 3 4 5 5
Wind_Direction
224 231 204 214 219 201 186 187 190 225 220 227 214 209 209 203 195 186 190 192 192 197 203 206 206 205 202 203 202 193 187 198 212 216 212 211 223 238 255 272 278 283 292 297
277 258 229 234 229 213 210 200 207 219 241 240 214 183 188 192 187 189 196 199 199 198 198 201 203 202 201 204 203 190 190 205 211 210 211 217 228 237 254 268 278 284 288 288
265 290 331 261 225 208 210 208 192 214 227 197 174 189 193 194 190 193 198 198 195 196 199 200 201 197 198 203 195 190 199 210 212 211 217 226 231 234 247 254 261 274 280 278
226 9 235 245 235 202 207 219 200 198 197 183 191 198 196 184 181 190 190 187 188 192 197 202 200 195 196 189 186 194 205 215 216 214 222 229 230 240 247 246 253 261 268 270
156 231 274 286 264 193 190 235 210 193 191 188 162 114 229 202 176 179 182 180 184 185 185 187 190 187 175 180 188 199 214 222 223 217 222 229 234 243 244 244 253 255 259 263
144 195 249 255 267 195 133 249 228 185 179 165 137 151 228 208 165 160 158 160 162 156 144 155 178 163 159 177 188 216 229 231 230 219 218 227 235 241 241 237 249 260 265 261
175 216 263 257 265 115 147 235 227 180 172 164 174 191 187 162 154 151 147 146 137 128 129 151 151 136 139 149 206 238 238 236 237 232 231 235 241 244 245 248 257 263 269 272
165 197 252 248 168 181 212 228 185 174 169 166 171 154 147 151 152 149 142 137 131 122 118 116 128 129 129 160 251 244 216 231 257 261 259 257 251 261 259 255 262 268 271 281
188 211 232 218 205 217 185 180 179 166 166 151 147 154 158 157 155 153 149 144 133 127 114 90 92 114 117 314 312 72 63 321 304 306 299 292 277 278 282 269 260 268 267 272
250 265 259 242 224 201 188 185 177 164 157 154 157 162 161 159 158 155 151 145 135 124 115 98 77 76 76 29 45 74 52 6 351 343 328 321 308 291 286 282 275 274 272 271
260 279 306 286 240 210 190 167 157 158 164 164 158 161 162 161 159 153 144 138 132 128 121 108 87 69 49 39 57 66 50 25 5 354 340 331 324 303 291 275 262 264 269 263
239 245 225 247 246 221 191 186 176 166 165 169 165 163 160 159 156 148 141 132 124 120 118 110 92 69 44 37 58 69 51 24 6 354 345 340 334 333 326 323 332 339 335 315
236 252 236 247 250 223 203 197 184 174 168 169 167 160 155 151 151 143 138 135 133 129 123 113 94 71 43 38 57 66 57 29 13 8 4 357 354 352 346 345 358 8 5 359
256 256 260 252 242 227 208 194 176 167 165 161 156 150 147 140 143 144 143 139 131 125 119 111 95 73 43 49 60 59 50 40 37 18 9 7 5 4 6 8 8 3 359 4
264 249 244 248 241 221 192 165 159 164 160 154 153 153 152 150 151 147 139 132 125 119 117 109 97 77 50 60 64 57 49 40 36 27 22 20 18 21 24 23 21 11 9 9
268 268 253 235 219 204 181 174 175 178 170 162 160 159 153 145 139 136 136 136 131 129 126 116 107 96 74 69 67 56 46 53 59 46 33 30 29 31 30 28 27 27 24 14
270 264 247 235 224 213 201 194 189 182 173 167 162 150 141 137 135 136 135 131 128 128 126 121 118 103 83 76 76 67 55 50 56 52 42 38 37 36 34 36 34 32 26 20
256 245 235 222 216 218 216 204 188 177 171 164 152 149 150 151 150 147 140 131 121 114 115 123 120 103 84 75 80 74 69 62 53 52 45 43 42 37 37 38 34 32 19 21
309 293 278 254 232 215 208 200 191 179 164 156 157 158 156 151 147 145 142 138 136 135 142 131 121 107 91 77 89 78 75 68 59 49 48 44 44 34 32 31 27 23 19 20
328 321 310 298 280 226 206 190 173 165 162 157 152 150 149 150 148 146 143 143 153 156 153 137 123 117 105 85 89 84 77 73 68 52 47 46 37 23 15 12 13 9 8 7
337 335 329 324 313 266 171 164 159 157 156 155 155 156 153 149 148 147 144 145 163 154 147 139 134 138 132 111 88 85 76 72 73 69 54 39 19 5 353 345 345 343 341 338
339 339 345 356 35 70 95 123 140 143 143 144 144 145 146 147 147 146 149 154 161 155 143 139 149 159 151 117 101 90 77 77 86 101 70 337 335 331 326 326 322 320 320 318
335 336 347 6 49 82 84 99 122 136 140 143 146 149 150 150 152 151 155 160 155 157 149 158 174 171 149 122 121 113 100 105 163 231 253 268 282 294 302 311 308 307 307 308
329 328 336 5 64 90 96 98 103 114 123 129 137 142 141 139 137 146 144 160 165 160 161 183 188 187 169 148 154 164 184 211 229 253 272 281 284 288 292 299 302 301 301 305
318 314 308 164 124 130 130 116 106 108 112 118 125 132 136 142 145 151 150 160 170 166 173 194 198 193 170 168 185 196 208 216 212 209 223 259 279 288 292 295 298 300 302 301
301 296 279 234 180 157 147 133 128 127 125 125 126 131 131 132 137 144 151 162 171 175 179 195 202 193 174 184 193 197 204 234 286 288 262 276 289 296 298 304 309 308 304 303
289 288 276 237 173 156 150 148 147 150 149 147 145 147 145 143 145 152 156 163 169 175 180 187 188 184 180 181 183 185 187 200 223 251 275 292 299 303 305 309 309 309 309 310
Height
1498 1494 1495 1495 1493 1494 1501 1506 1512 1504 1499 1492 1488 1488 1488 1489 1491 1492 1493 1495 1496 1498 1500 1501 1502 1503 1504 1504 1504 1504 1504 1503 1502 1501 1500 1498 1496 1495 1493 1491 1489 1487 1485 1483
1494 1488 1490 1491 1489 1489 1491 1493 1496 1495 1493 1483 1482 1484 1486 1487 1488 1489 1491 1492 1494 1495 1497 1498 1499 1501 1501 1502 1502 1503 1502 1502 1501 1500 1499 1497 1496 1494 1492 1490 1488 1486 1484 1482
1504 1493 1490 1496 1484 1484 1485 1482 1485 1491 1485 1480 1482 1482 1483 1484 1485 1486 1488 1489 1491 1492 1494 1495 1497 1498 1499 1500 1500 1501 1500 1500 1499 1498 1497 1496 1494 1493 1491 1489 1487 1485 1483 1481
1505 1499 1506 1486 1467 1469 1472 1472 1472 1472 1472 1474 1476 1477 1479 1481 1482 1483 1485 1487 1488 1490 1491 1493 1494 1496 1497 1498 1498 1498 1498 1498 1497 1497 1495 1494 1493 1491 1489 1487 1485 1483 1481 1479
1507 1506 1498 1478 1464 1463 1470 1470 1463 1465 1467 1470 1473 1476 1478 1479 1480 1481 1483 1485 1486 1488 1489 1491 1492 1493 1495 1495 1496 1496 1496 1496 1495 1494 1493 1492 1491 1489 1487 1485 1484 1482 1480 1477
1504 1502 1501 1477 1457 1454 1461 1469 1457 1458 1462 1467 1471 1480 1477 1476 1478 1479 1481 1483 1484 1486 1487 1489 1490 1491 1492 1493 1494 1494 1494 1493 1492 1492 1490 1489 1488 1486 1485 1483 1481 1479 1477 1475
1500 1500 1489 1464 1455 1456 1474 1469 1452 1454 1457 1461 1464 1467 1469 1472 1475 1477 1479 1481 1482 1484 1485 1487 1488 1489 1490 1491 1491 1491 1491 1490 1490 1488 1487 1486 1485 1483 1482 1480 1478 1476 1474 1473
1497 1499 1488 1454 1455 1458 1456 1449 1449 1451 1453 1457 1460 1463 1467 1470 1473 1475 1477 1479 1481 1482 1483 1485 1486 1487 1488 1488 1488 1488 1488 1487 1486 1485 1484 1482 1481 1479 1478 1476 1474 1472 1471 1469
1473 1469 1452 1448 1448 1447 1447 1447 1448 1449 1451 1455 1458 1461 1465 1468 1471 1473 1475 1477 1479 1480 1481 1483 1484 1484 1485 1485 1485 1485 1484 1483 1482 1481 1480 1478 1477 1475 1473 1472 1470 1468 1466 1464
1463 1455 1447 1444 1444 1445 1445 1446 1446 1448 1450 1453 1456 1459 1462 1465 1468 1470 1473 1475 1476 1478 1479 1480 1481 1482 1482 1482 1482 1481 1481 1480 1478 1477 1475 1474 1472 1471 1469 1467 1465 1464 1462 1460
1458 1450 1446 1443 1442 1442 1443 1444 1445 1447 1449 1451 1453 1456 1459 1462 1465 1467 1470 1472 1474 1475 1476 1477 1478 1479 1479 1479 1479 1478 1477 1476 1474 1473 1471 1469 1468 1466 1464 1463 1461 1459 1458 1456
1455 1446 1446 1442 1440 1440 1440 1440 1442 1444 1446 1448 1450 1453 1456 1458 1461 1464 1466 1469 1470 1472 1473 1474 1475 1476 1476 1476 1475 1474 1473 1472 1470 1469 1467 1465 1464 1462 1461 1460 1458 1456 1454 1452
1442 1440 1439 1437 1436 1436 1436 1436 1438 1440 1442 1444 1447 1450 1452 1455 1458 1460 1463 1465 1467 1469 1470 1471 1472 1473 1473 1472 1472 1471 1470 1468 1467 1465 1464 1462 1460 1458 1457 1456 1454 1452 1450 1449
1436 1435 1433 1432 1431 1431 1431 1432 1434 1436 1439 1441 1443 1446 1449 1451 1454 1457 1459 1462 1464 1466 1467 1469 1469 1470 1470 1469 1469 1468 1467 1466 1464 1463 1461 1460 1458 1456 1454 1452 1451 1449 1448 1446
1428 1428 1427 1426 1425 1425 1425 1427 1429 1431 1434 1436 1439 1441 1444 1447 1449 1453 1456 1458 1461 1463 1464 1466 1466 1467 1467 1467 1466 1465 1465 1464 1462 1461 1459 1458 1456 1455 1453 1451 1449 1447 1446 1444
1421 1420 1420 1419 1418 1419 1420 1421 1423 1425 1428 1430 1434 1437 1440 1443 1446 1450 1453 1455 1457 1459 1461 1463 1464 1464 1465 1464 1464 1463 1463 1462 1461 1460 1458 1457 1455 1454 1452 1450 1448 1446 1444 1443
1416 1414 1414 1413 1413 1413 1414 1415 1417 1419 1422 1425 1428 1432 1436 1440 1443 1446 1450 1453 1455 1457 1459 1460 1461 1462 1463 1463 1462 1462 1462 1461 1460 1459 1458 1457 1455 1453 1452 1450 1448 1447 1445 1443
1410 1409 1409 1408 1408 1408 1409 1410 1412 1414 1416 1420 1424 1428 1431 1435 1438 1442 1446 1449 1452 1455 1456 1458 1459 1460 1461 1461 1461 1461 1461 1460 1460 1459 1458 1456 1455 1454 1452 1451 1449 1447 1445 1443
1405 1403 1402 1402 1401 1401 1402 1404 1406 1408 1411 1415 1418 1422 1426 1431 1436 1440 1443 1446 1449 1452 1454 1456 1457 1458 1459 1460 1460 1460 1460 1459 1459 1458 1457 1456 1455 1454 1452 1451 1449 1447 1445 1443
1400 1398 1397 1396 1395 1395 1396 1397 1400 1402 1406 1410 1414 1419 1423 1428 1432 1436 1440 1444 1447 1450 1452 1454 1455 1457 1458 1458 1459 1459 1459 1458 1458 1457 1457 1456 1454 1453 1452 1450 1448 1447 1445 1443
1398 1395 1394 1392 1391 1391 1391 1392 1395 1398 1401 1406 1410 1414 1419 1425 1429 1433 1437 1441 1445 1448 1450 1452 1454 1455 1456 1457 1457 1457 1457 1457 1457 1456 1455 1454 1453 1452 1450 1449 1447 1445 1443 1441
1399 1396 1393 1391 1390 1389 1390 1391 1393 1396 1399 1404 1408 1413 1418 1422 1427 1432 1436 1439 1442 1445 1448 1450 1452 1453 1454 1455 1455 1456 1456 1455 1455 1455 1454 1453 1451 1450 1449 1447 1445 1443 1441 1439
1401 1398 1395 1392 1391 1390 1391 1392 1394 1397 1399 1403 1407 1411 1415 1420 1424 1429 1433 1438 1441 1444 1446 1448 1450 1451 1452 1453 1453 1454 1454 1453 1453 1452 1451 1450 1449 1448 1446 1444 1442 1440 1438 1436
1402 1400 1397 1395 1394 1393 1393 1394 1396 1398 1401 1404 1408 1411 1415 1420 1424 1429 1433 1436 1439 1442 1444 1446 1448 1449 1450 1451 1451 1451 1451 1451 1450 1450 1449 1448 1446 1445 1443 1441 1439 1437 1434 1432
1403 1401 1398 1396 1396 1396 1396 1397 1398 1400 1403 1406 1409 1413 1416 1420 1423 1427 1431 1435 1438 1441 1443 1444 1446 1447 1448 1448 1449 1449 1449 1448 1447 1446 1445 1444 1442 1441 1439 1437 1435 1432 1430 1427
1402 1400 1398 1397 1396 1396 1397 1398 1399 1401 1404 1406 1409 1413 1416 1420 1423 1427 1430 1433 1436 1439 1441 1442 1444 1445 1445 1446 1446 1446 1445 1445 1444 1443 1442 1440 1438 1437 1434 1432 1430 1427 1425 1422
1399 1397 1396 1395 1395 1396 1396 1398 1399 1401 1404 1406 1409 1412 1416 1419 1422 1425 1429 1432 1434 1436 1438 1440 1441 1442 1442 1442 1442 1442 1442 1441 1440 1439 1437 1436 1434 1432 1430 1427 1425 1422 1419 1416